• In Deutschland
  • Länderverzeichnis
  • Für 7 Tage
  • Wassertemperatur
  • Satellitenkarten
  • Wetterkarte
  • Widgets
  • user-avatar
    Anmelden

    Stündliche Wetter Medellín

    Heute, 18 Januar, Donnerstag

    Zeit Temperatur Niederschläge Wind Luftdruck Luftfeuchtigkeit
    00:00 +12°C° 0,6 mm 0 m/S 586 mmHg 95%
    01:00 +11°C° 0,6 mm 0 m/S 586 mmHg 95%
    02:00 +11°C° 0,5 mm 0 m/S 585 mmHg 95%
    03:00 +11°C° 0,5 mm 0 m/S 585 mmHg 95%
    04:00 +11°C° 0,5 mm 0 m/S 585 mmHg 95%
    05:00 +11°C° 0,3 mm 0 m/S 585 mmHg 94%
    06:00 +11°C° 0,3 mm 0 m/S 585 mmHg 94%
    07:00 +11°C° 0,3 mm 0 m/S 586 mmHg 93%
    08:00 +13°C° 0,2 mm 0 m/S 587 mmHg 86%
    09:00 +15°C° 0,2 mm 0 m/S 588 mmHg 80%
    10:00 +18°C° 0,2 mm 1 m/S 589 mmHg 73%
    11:00 +19°C° 0,3 mm 1 m/S 588 mmHg 73%
    12:00 +19°C° 0,3 mm 1 m/S 588 mmHg 73%
    13:00 +19°C° 0,3 mm 1 m/S 588 mmHg 73%
    14:00 +19°C° 0,8 mm 1 m/S 587 mmHg 75%
    15:00 +18°C° 0,8 mm 1 m/S 586 mmHg 78%
    16:00 +18°C° 0,8 mm 1 m/S 586 mmHg 81%
    17:00 +15°C° 1,3 mm 0 m/S 586 mmHg 85%
    18:00 +13°C° 1,3 mm 0 m/S 585 mmHg 89%
    19:00 +12°C° 1,3 mm 0 m/S 585 mmHg 93%
    20:00 +12°C° 2,5 mm 0 m/S 585 mmHg 94%
    21:00 +12°C° 2,5 mm 0 m/S 586 mmHg 94%
    22:00 +12°C° 2,5 mm 0 m/S 586 mmHg 95%
    23:00 +12°C° 1,7 mm 0 m/S 586 mmHg 95%

    Morgen, 19 Januar, Freitag

    Zeit Temperatur Niederschläge Wind Luftdruck Luftfeuchtigkeit
    00:00 +11°C° 1,7 mm 0 m/S 586 mmHg 95%
    01:00 +11°C° 1,7 mm 0 m/S 586 mmHg 95%
    02:00 +11°C° 0,7 mm 0 m/S 585 mmHg 95%
    03:00 +11°C° 0,7 mm 0 m/S 585 mmHg 95%
    04:00 +11°C° 0,7 mm 0 m/S 585 mmHg 95%
    05:00 +11°C° 0,6 mm 0 m/S 585 mmHg 95%
    06:00 +11°C° 0,6 mm 0 m/S 585 mmHg 95%
    07:00 +11°C° 0,6 mm 0 m/S 586 mmHg 96%
    08:00 +12°C° 0,3 mm 0 m/S 586 mmHg 90%
    09:00 +14°C° 0,3 mm 0 m/S 587 mmHg 84%
    10:00 +15°C° 0,3 mm 0 m/S 588 mmHg 79%
    11:00 +18°C° 0,3 mm 1 m/S 588 mmHg 76%
    12:00 +19°C° 0,3 mm 1 m/S 587 mmHg 73%
    13:00 +20°C° 0,3 mm 1 m/S 587 mmHg 71%
    14:00 +20°C° 0,6 mm 1 m/S 586 mmHg 72%
    15:00 +20°C° 0,6 mm 1 m/S 586 mmHg 72%
    16:00 +18°C° 0,6 mm 0 m/S 585 mmHg 73%
    17:00 +16°C° 0,7 mm 0 m/S 585 mmHg 80%
    18:00 +15°C° 0,7 mm 1 m/S 585 mmHg 86%
    19:00 +14°C° 0,7 mm 1 m/S 584 mmHg 92%
    20:00 +14°C° 0,5 mm 1 m/S 585 mmHg 93%
    21:00 +12°C° 0,5 mm 0 m/S 585 mmHg 94%
    22:00 +12°C° 0,5 mm 0 m/S 586 mmHg 94%
    23:00 +12°C° 0,6 mm 0 m/S 585 mmHg 94%

    übermorgen, 20 Januar, Samstag

    Zeit Temperatur Niederschläge Wind Luftdruck Luftfeuchtigkeit
    00:00 +12°C° 0,6 mm 0 m/S 585 mmHg 93%
    01:00 +11°C° 0,6 mm 0 m/S 585 mmHg 93%
    02:00 +11°C° 0,4 mm 0 m/S 585 mmHg 93%
    03:00 +11°C° 0,4 mm 0 m/S 584 mmHg 92%
    04:00 +11°C° 0,4 mm 0 m/S 584 mmHg 92%
    05:00 +11°C° 0,1 mm 0 m/S 584 mmHg 91%
    06:00 +12°C° 0,1 mm 1 m/S 584 mmHg 91%
    07:00 +12°C° 0,1 mm 1 m/S 585 mmHg 90%
    08:00 +14°C° 0 mm 1 m/S 586 mmHg 81%
    09:00 +16°C° 0 mm 1 m/S 587 mmHg 73%
    10:00 +20°C° 0 mm 1 m/S 589 mmHg 64%
    11:00 +21°C° 0,1 mm 1 m/S 589 mmHg 58%
    12:00 +22°C° 0,1 mm 1 m/S 588 mmHg 53%
    13:00 +24°C° 0,1 mm 1 m/S 588 mmHg 48%
    14:00 +23°C° 0,3 mm 1 m/S 588 mmHg 50%
    15:00 +23°C° 0,3 mm 1 m/S 587 mmHg 53%
    16:00 +22°C° 0,3 mm 1 m/S 586 mmHg 55%
    17:00 +20°C° 0,2 mm 1 m/S 585 mmHg 64%
    18:00 +18°C° 0,2 mm 1 m/S 585 mmHg 73%
    19:00 +14°C° 0,2 mm 1 m/S 584 mmHg 82%
    20:00 +14°C° 0,1 mm 1 m/S 584 mmHg 85%
    21:00 +13°C° 0,1 mm 1 m/S 585 mmHg 87%
    22:00 +13°C° 0,1 mm 1 m/S 585 mmHg 90%
    23:00 +13°C° 0,1 mm 1 m/S 584 mmHg 89%

    21 Januar, Sonntag

    Zeit Temperatur Niederschläge Wind Luftdruck Luftfeuchtigkeit
    00:00 +12°C° 0,1 mm 1 m/S 584 mmHg 89%
    01:00 +12°C° 0,1 mm 1 m/S 584 mmHg 89%
    02:00 +12°C° 0,1 mm 1 m/S 583 mmHg 88%
    03:00 +11°C° 0,1 mm 1 m/S 583 mmHg 88%
    04:00 +11°C° 0,1 mm 1 m/S 583 mmHg 88%
    05:00 +11°C° 0 mm 1 m/S 583 mmHg 88%
    06:00 +11°C° 0 mm 1 m/S 584 mmHg 87%
    07:00 +11°C° 0 mm 1 m/S 584 mmHg 86%
    08:00 +15°C° 0 mm 1 m/S 586 mmHg 75%
    09:00 +19°C° 0 mm 1 m/S 587 mmHg 63%
    10:00 +22°C° 0 mm 1 m/S 589 mmHg 52%
    11:00 +23°C° 0 mm 1 m/S 589 mmHg 48%
    12:00 +24°C° 0 mm 1 m/S 589 mmHg 44%
    13:00 +25°C° 0 mm 1 m/S 588 mmHg 40%
    14:00 +25°C° 0,1 mm 1 m/S 587 mmHg 43%
    15:00 +24°C° 0,1 mm 1 m/S 586 mmHg 45%
    16:00 +23°C° 0,1 mm 1 m/S 585 mmHg 48%
    17:00 +20°C° 0,2 mm 1 m/S 585 mmHg 58%
    18:00 +18°C° 0,2 mm 1 m/S 584 mmHg 69%
    19:00 +15°C° 0,2 mm 1 m/S 584 mmHg 79%
    20:00 +14°C° 0,3 mm 1 m/S 584 mmHg 82%
    21:00 +13°C° 0,3 mm 1 m/S 584 mmHg 85%
    22:00 +13°C° 0,3 mm 1 m/S 584 mmHg 88%
    23:00 +13°C° 0 mm 1 m/S 584 mmHg 88%

    22 Januar, Montag

    Zeit Temperatur Niederschläge Wind Luftdruck Luftfeuchtigkeit
    00:00 +12°C° 0 mm 1 m/S 584 mmHg 88%
    01:00 +12°C° 0 mm 1 m/S 583 mmHg 88%
    02:00 +12°C° 0,1 mm 1 m/S 583 mmHg 88%
    03:00 +11°C° 0,1 mm 1 m/S 583 mmHg 88%
    04:00 +11°C° 0,1 mm 1 m/S 582 mmHg 88%
    05:00 +11°C° 0,1 mm 1 m/S 583 mmHg 87%
    06:00 +12°C° 0,1 mm 1 m/S 583 mmHg 87%
    07:00 +12°C° 0,1 mm 1 m/S 584 mmHg 87%
    08:00 +15°C° 0 mm 1 m/S 585 mmHg 76%
    09:00 +19°C° 0 mm 1 m/S 587 mmHg 65%
    10:00 +21°C° 0 mm 1 m/S 588 mmHg 54%
    11:00 +22°C° 0,1 mm 1 m/S 588 mmHg 52%
    12:00 +23°C° 0,1 mm 1 m/S 588 mmHg 50%
    13:00 +24°C° 0,1 mm 1 m/S 587 mmHg 48%
    14:00 +23°C° 0,6 mm 1 m/S 587 mmHg 52%
    15:00 +23°C° 0,6 mm 1 m/S 586 mmHg 56%
    16:00 +22°C° 0,6 mm 1 m/S 585 mmHg 60%
    17:00 +20°C° 0,4 mm 1 m/S 584 mmHg 68%
    18:00 +18°C° 0,4 mm 1 m/S 584 mmHg 76%
    19:00 +14°C° 0,4 mm 1 m/S 583 mmHg 84%
    20:00 +14°C° 0,3 mm 1 m/S 584 mmHg 86%
    21:00 +14°C° 0,3 mm 1 m/S 584 mmHg 88%
    22:00 +14°C° 0,3 mm 1 m/S 585 mmHg 90%
    23:00 +13°C° 0,2 mm 1 m/S 584 mmHg 90%

    23 Januar, Dienstag

    Zeit Temperatur Niederschläge Wind Luftdruck Luftfeuchtigkeit
    00:00 +13°C° 0,2 mm 1 m/S 584 mmHg 91%
    01:00 +13°C° 0,2 mm 1 m/S 584 mmHg 91%
    02:00 +13°C° 0,5 mm 1 m/S 584 mmHg 91%
    03:00 +12°C° 0,5 mm 1 m/S 583 mmHg 90%
    04:00 +12°C° 0,5 mm 1 m/S 583 mmHg 90%
    05:00 +12°C° 0,4 mm 1 m/S 583 mmHg 90%
    06:00 +12°C° 0,4 mm 1 m/S 584 mmHg 89%
    07:00 +12°C° 0,4 mm 1 m/S 584 mmHg 89%
    08:00 +15°C° 0,1 mm 1 m/S 585 mmHg 79%
    09:00 +18°C° 0,1 mm 1 m/S 587 mmHg 70%
    10:00 +19°C° 0,1 mm 0 m/S 588 mmHg 60%
    11:00 +22°C° 0,4 mm 1 m/S 588 mmHg 60%
    12:00 +22°C° 0,4 mm 1 m/S 587 mmHg 60%
    13:00 +23°C° 0,4 mm 1 m/S 587 mmHg 59%
    14:00 +22°C° 1,1 mm 1 m/S 586 mmHg 63%
    15:00 +22°C° 1,1 mm 1 m/S 585 mmHg 67%
    16:00 +21°C° 1,1 mm 1 m/S 584 mmHg 70%
    17:00 +19°C° 1,3 mm 1 m/S 584 mmHg 77%
    18:00 +16°C° 1,3 mm 1 m/S 584 mmHg 84%
    19:00 +14°C° 1,3 mm 1 m/S 583 mmHg 91%
    20:00 +14°C° 0,5 mm 1 m/S 584 mmHg 92%
    21:00 +14°C° 0,5 mm 1 m/S 584 mmHg 93%
    22:00 +13°C° 0,5 mm 1 m/S 584 mmHg 95%
    23:00 +12°C° 0,1 mm 0 m/S 584 mmHg 94%
    Mehr zeigen